Regional Weather Roundup
Issued by NWS Upton, NY

Current Version | Previous Version | Graphics & Text | Print | Product List | Glossary Off
Versions: 1 2 3 4 5 6 7 8 9 10 11 12 13 14 15 16 17 18 19 20 21 22 23 24 25 26 27 28 29 30 31 32 33 34 35 36 37 38 39 40 41 42 43 44 45 46 47 48 49 50

000
ASUS41 KOKX 300105
RWROKX

REGIONAL WEATHER ROUNDUP
NATIONAL WEATHER SERVICE NEW YORK NY
900 PM EDT TUE JUL 29 2014

NOTE: "FAIR" INDICATES FEW OR NO CLOUDS BELOW 12,000 FEET WITH NO
SIGNIFICANT WEATHER AND/OR OBSTRUCTIONS TO VISIBILITY.

NYZ071-072-176-178-NJZ106-104-300200-
NEW YORK CITY METRO AREA


CITY           SKY/WX    TMP DP  RH WIND       PRES   REMARKS
CENTRAL PARK   PTCLDY    71  49  45 VRB5      29.97S
LAGUARDIA APRT MOCLDY    72  50  45 NW7       29.94R
KENNEDY INTL   MOCLDY    73  47  39 NW10      29.95R
NEWARK/LIBERTY MOCLDY    72  50  45 NW9       29.95R
BRNX BOT. GARD   N/A     70  50  49 N13       29.96S
TETERBORO      PTCLDY    71  50  47 NW6       29.94R
$$

NYZ177-179-078>081-300200-
LONG ISLAND NEW YORK

CITY           SKY/WX    TMP DP  RH WIND       PRES   REMARKS
FARMINGDALE    CLOUDY    72  50  45 N5        29.94R
ISLIP          MOCLDY    71  52  50 NW3       29.93R
SHIRLEY        MOCLDY    64  52  64 CALM      29.95R
WESTHAMPTON    CLEAR     63  55  75 CALM      29.95R
MONTAUK POINT    N/A     69  62  78 VRB3      29.95R
$$

NYZ052-065-067-300200-
HUDSON VALLEY

CITY           SKY/WX    TMP DP  RH WIND       PRES   REMARKS
WHITE PLAINS   PTCLDY    66  53  63 NW5       29.95R
NEWBURGH       MOCLDY    64  55  72 W7        29.97R
MONTGOMERY     CLOUDY    64  55  72 CALM      29.96R
POUGHKEEPSIE   CLOUDY    67  58  72 CALM      29.94R
ALBANY         MOCLDY    66  53  63 W6        29.94R
$$

NJZ001-105-106-008-010-013-015-019>022-104-300200-
NEW JERSEY

CITY           SKY/WX    TMP DP  RH WIND       PRES   REMARKS
NEWARK/LIBERTY MOCLDY    72  50  45 NW9       29.95R
TETERBORO      PTCLDY    71  50  47 NW6       29.94R
CALDWELL       PTCLDY    65  52  62 CALM      29.96R
MORRISTOWN     CLOUDY    63  55  77 CALM      29.96S
SOMERVILLE     CLEAR     62  56  80 CALM      29.94S
LINDEN         MOCLDY    71  53  52 NW5       29.97R
SUSSEX         CLOUDY    66  56  70 CALM      29.97R
ANDOVER          N/A     60  57  89 CALM      29.98R
TRENTON        CLOUDY    69  54  58 NW3       29.95S
MILLVILLE      CLOUDY    66  63  90 CALM      29.96S
ATLANTIC CITY  CLOUDY    71  58  63 W3        29.95S
WRIGHTSTOWN    LGT RAIN  68  57  68 NW2       29.94S
TOMS RIVER     MOCLDY    64  59  82 CALM      29.96S
BELMAR         CLOUDY    70  55  60 W3        29.95S
$$

PAZ047>061-062-071-300200-
EASTERN PENNSYLVANIA

CITY           SKY/WX    TMP DP  RH WIND       PRES   REMARKS
PHILADELPHIA   CLOUDY    73  53  49 NW8       29.96S
ALLENTOWN      PTCLDY    64  52  64 CALM      29.97S
SCRANTON       CLOUDY    64  51  62 CALM      29.99R
$$

CTZ002-004>006-009-010-012-RIZ004-006-007-MAZ004-011-015-300200-
SOUTHERN NEW ENGLAND
 IN CT

CITY           SKY/WX    TMP DP  RH WIND       PRES   REMARKS
BRADLEY INTL   MOCLDY    66  55  67 NW5       29.93R
HARTFORD       CLOUDY    71  49  45 CALM      29.93R
DANBURY        CLOUDY    64  56  75 SW5       29.97R
WTRBRY/OXFORD  MOCLDY    64  55  72 CALM      29.97R
BRIDGEPORT     CLOUDY    71  54  54 NW5       29.94R
MERIDEN        MOCLDY    65  58  78 CALM      29.94R
NEW HAVEN      MOCLDY    72  54  53 NW3       29.94R
CHESTER        MOCLDY    66  57  72 CALM      29.95R
GROTON         CLEAR     67  57  70 CALM      29.92S
WILLIMANTIC    PTCLDY    65  58  78 CALM      29.94R

 IN RI

CITY           SKY/WX    TMP DP  RH WIND       PRES   REMARKS
PROVIDENCE     PTCLDY    69  56  62 W6        29.93R
BLOCK ISLAND   CLEAR     68  57  68 SW9       29.94S
WESTERLY       CLEAR     68  61  78 CALM      29.94R

 IN MA

CITY           SKY/WX    TMP DP  RH WIND       PRES   REMARKS
BOSTON         MOCLDY    67  59  75 CALM      29.91R
WORCESTER      PTCLDY    63  53  70 W6        29.95R
WESTFIELD      CLEAR     61  56  83 CALM      29.93R
PROVINCETOWN   CLEAR     70  61  73 SW9       29.91S
NANTUCKET      CLEAR     65  61  87 W8        29.93S
$$

ANZ330-335-338-340-345-350-353-355-300200-
COASTAL MARINE OBSERVATIONS


STATION/POSITION TIME  SKY/WX   TEMP    WIND        PRES    VSBY  WAVE
                                AIR SEA DIR/SP/G                  HT/PER
                 (UTC)          (F)     (DEG/KT/KT) (MB)    (MI)  (FT/S)
NY HARB ENTRANCE NOT AVBL
4S FIRE IS       NOT AVBL
23SW MTP         0100            70 70              1013.4          4/ 7
HUDSON CANYON    0100            71 75  240/  4/  6 1014.2          3/ 8
EXECUTION ROCKS  0100            72 70  310/  8/ 10   N/A
WESTERN LI SOUND 0100            72     300/  2/  4   N/A           0
CENTRAL LI SOUND 0000            72 71  260/ 10/ 10   N/A           1
EASTERN LI SOUND 0000            69 68  260/  8/  8   N/A
ROBBINS REEF     0100            72     320/ 11/ 13   N/A
$$


>>>>>>>>>>>>>>>>>>>>>>>>>>>> KEY <<<<<<<<<<<<<<<<<<<<<<<<<<<
>                                                          <
>     SKY/WX - SKY CONDITION/PRESENT WEATHER               <
>     TMP    - TEMPERATURE IN FAHRENHEIT                   <
>     DP     - DEWPOINT IN FAHRENHEIT                      <
>     RH     - RELATIVE HUMIDITY IN PERCENT                <
>     WIND   - DIRECTION AND SPEED IN MPH                  <
>     PRES   - MEAN SEA LEVEL PRESSURE IN INCHES OF HG     <
>     WCI    - WIND CHILL INDEX                            <
>     VSB    - VISIBILITY IN MILES                         <
>     HX     - HEAT INDEX                                  <
>     TC     - TEMPERATURE IN CELSIUS                      <
>     VRB    - VARIABLE WIND DIRECTION                     <
>                                                          <
>>>>>>>>>>>>>>>>>>>>>>>>>>>> KEY <<<<<<<<<<<<<<<<<<<<<<<<<<<




USA.gov is the U.S. government's official web portal to all federal, state and local government web resources and services.